Wind_Speed
15 27 30 29 33 25 31 29 31 30 27 26 23 22 22 23 24 26 27 28 30 28 27 27 26 24 23 24 24 24 24 22 19 22 24 23 22 20 19 19 21 21 20
19 24 30 31 33 31 27 27 28 28 27 26 25 23 24 27 28 29 30 32 31 30 28 27 26 26 26 25 22 22 23 22 18 17 19 22 22 20 20 21 21 23 22
21 22 26 31 33 29 21 27 30 30 29 26 25 27 29 30 31 33 33 32 30 29 28 27 28 27 25 23 20 17 23 22 18 16 17 19 20 20 19 18 23 21 22
15 18 28 33 34 29 15 25 32 32 30 28 27 32 34 34 34 35 33 31 30 29 29 29 29 26 22 20 19 17 17 15 15 14 16 17 18 18 17 17 20 21 20
16 16 23 29 25 22 22 38 36 36 32 29 33 34 35 36 37 36 34 31 29 30 30 30 29 27 21 20 18 17 16 15 12 13 15 15 17 17 17 17 19 20 19
9 20 36 29 31 22 20 39 38 40 36 35 35 34 36 36 37 35 34 31 30 30 30 31 30 25 18 17 17 16 16 15 15 15 16 17 17 17 16 15 15 14 15
6 6 17 27 28 23 8 39 45 44 38 39 36 35 36 37 37 35 32 30 29 29 30 32 31 23 17 17 17 15 13 14 14 15 16 16 17 16 16 16 16 16 15
12 9 15 31 30 15 21 14 47 41 42 41 40 38 38 38 37 35 32 30 29 28 29 30 29 24 17 17 16 12 13 14 14 16 14 15 15 16 16 15 15 16 16
10 15 17 25 13 4 7 7 47 37 44 44 39 38 39 39 37 34 31 28 27 27 27 27 28 26 20 14 12 11 11 11 12 15 14 15 15 15 15 14 15 14 15
9 12 12 11 10 9 7 3 28 35 31 40 39 38 37 36 35 33 30 28 25 25 25 25 25 25 21 15 11 9 9 9 10 13 13 13 13 13 13 13 14 14 14
10 11 14 16 15 21 19 29 24 32 28 33 37 36 36 36 34 30 28 26 24 23 23 23 23 22 21 14 10 8 7 8 9 10 10 10 10 12 13 13 13 13 14
8 10 13 14 11 13 17 29 39 41 39 29 31 34 34 34 32 30 27 25 23 21 21 21 21 20 19 13 9 6 4 5 6 8 8 9 9 10 10 10 11 11 11
8 11 13 15 16 22 36 37 41 43 40 32 32 29 29 31 31 29 27 24 21 19 19 16 15 15 15 11 9 7 4 4 5 7 7 7 7 7 7 8 8 8 9
10 13 20 19 23 27 34 40 40 42 43 39 39 35 30 32 31 27 25 22 20 18 16 14 12 12 11 10 8 7 5 3 3 4 6 5 5 5 5 4 4 6 9
11 18 22 20 25 28 32 34 42 43 37 38 39 34 32 32 29 26 24 22 18 16 12 11 10 9 9 8 8 7 5 3 2 3 3 4 4 4 4 5 8 9 11
15 22 23 24 26 28 28 38 45 38 37 37 35 34 32 28 26 25 21 19 16 13 12 10 8 7 8 8 8 7 4 4 2 2 1 2 3 4 4 3 4 6 8
12 17 24 26 27 30 35 41 41 38 38 35 35 32 28 26 22 19 18 18 16 13 12 10 8 8 8 7 7 7 5 5 4 6 3 4 4 4 5 6 8 10 11
16 19 24 28 29 32 36 42 42 38 36 35 33 29 25 22 21 19 17 15 16 15 11 10 9 8 7 6 7 7 7 6 5 8 7 6 7 7 8 9 11 13 13
19 24 25 24 28 33 41 43 39 39 34 35 32 28 27 23 18 16 16 15 15 15 13 11 11 9 8 8 9 10 8 8 8 10 10 8 9 11 12 15 15 15 16
17 25 22 21 29 35 42 40 38 37 33 32 30 26 23 20 18 19 18 16 17 18 17 15 14 13 13 13 12 13 13 13 13 13 13 12 12 13 16 16 16 16 17
22 27 25 27 29 37 44 38 39 40 35 29 26 25 25 23 21 21 18 19 20 21 19 17 18 19 19 18 16 18 19 20 19 18 17 17 16 16 17 15 17 17 19
25 29 29 30 33 41 46 44 42 36 32 28 25 27 27 26 25 24 24 25 23 22 22 22 22 23 22 22 24 23 17 23 26 25 23 22 20 19 21 19 19 20 21
28 33 31 36 39 44 45 40 38 31 27 30 29 31 31 29 26 25 26 27 25 25 25 24 24 25 25 24 26 22 11 15 21 27 27 25 23 22 22 22 24 26 26
34 36 37 41 41 45 42 43 40 40 38 36 34 30 32 31 28 27 26 25 25 26 27 27 26 24 26 27 28 33 33 24 12 6 20 25 24 25 22 24 27 29 29
36 39 40 40 39 40 41 41 38 39 36 33 31 31 33 31 30 29 30 28 28 27 29 29 28 26 25 29 31 35 37 34 30 17 12 17 19 17 25 26 27 30 30
37 37 39 40 40 40 41 41 38 38 39 37 34 33 34 34 35 33 32 31 30 30 31 30 31 27 25 28 32 37 39 37 35 31 27 25 29 24 22 21 24 25 28
Wind_Direction
165 174 175 176 163 182 170 171 170 171 168 162 159 156 153 152 148 139 138 136 133 128 125 122 119 117 113 107 102 98 94 93 90 92 90 86 86 87 90 90 86 80 81
169 177 181 178 167 174 175 179 173 169 170 163 158 152 150 147 143 141 136 131 128 126 123 123 123 119 112 103 100 98 96 89 88 89 93 89 86 85 92 91 88 82 76
174 174 180 179 170 168 184 187 178 173 171 165 161 154 150 146 142 136 134 132 130 128 127 126 121 114 113 115 108 96 84 75 72 84 90 91 88 85 87 82 84 90 93
191 189 177 183 172 178 215 216 184 179 176 169 162 156 151 147 143 139 136 134 132 129 128 126 123 118 113 109 107 94 80 69 66 81 82 84 85 82 82 83 92 90 89
212 206 207 202 211 234 238 209 190 182 176 167 160 154 148 144 141 140 136 135 132 128 126 126 123 118 117 109 100 90 78 71 79 86 86 85 86 86 88 89 96 92 85
237 267 236 227 221 247 232 222 201 181 175 165 151 150 147 144 141 139 136 133 129 127 126 129 128 125 128 116 109 101 84 72 71 78 82 85 84 85 88 90 86 84 77
197 255 230 218 204 134 40 225 197 184 168 161 157 153 149 145 143 138 134 131 130 127 127 130 130 128 131 127 124 107 91 75 72 70 74 79 80 82 85 83 79 76 72
211 199 210 166 156 243 284 324 186 183 164 158 153 152 149 146 141 136 132 130 128 126 127 132 131 120 115 118 127 113 94 77 63 62 73 79 81 84 85 82 77 74 74
195 195 199 190 229 212 275 149 175 163 156 154 150 150 150 146 140 136 132 129 125 124 126 133 136 129 115 125 124 118 92 72 62 57 68 79 80 81 80 79 77 76 71
161 184 204 198 184 183 156 277 123 139 161 149 150 152 146 142 140 137 132 127 123 123 125 128 139 144 136 133 128 109 102 85 59 53 62 71 74 79 81 78 75 71 71
138 145 136 145 150 181 218 177 173 135 152 155 151 149 147 144 141 136 131 128 126 125 126 130 137 147 150 153 143 121 97 68 52 54 58 69 72 75 74 73 72 65 60
194 159 152 153 138 162 176 160 152 153 148 158 151 152 149 145 142 139 134 133 131 130 130 135 139 145 144 152 149 139 107 70 56 43 49 59 67 72 71 71 69 63 65
199 189 187 163 139 143 144 148 149 150 146 156 159 154 150 149 149 147 144 142 138 136 140 138 135 133 129 129 148 151 137 87 59 51 48 53 53 61 58 56 54 52 52
185 182 165 162 155 156 154 153 154 153 151 159 163 159 166 159 158 151 152 147 148 144 145 139 130 132 128 129 147 153 142 131 79 67 52 40 30 28 22 25 28 27 32
188 183 176 164 162 160 164 162 154 149 161 166 167 167 170 165 161 160 156 156 154 157 149 142 141 137 139 144 162 174 169 162 125 96 53 33 353 323 316 346 8 6 358
193 192 184 166 163 159 163 157 155 158 164 166 171 173 173 168 170 166 162 161 167 168 161 159 146 153 158 159 161 177 183 184 196 180 28 322 292 298 321 320 325 324 316
210 198 191 179 178 179 168 162 159 165 169 171 172 173 173 173 177 165 178 174 176 181 174 175 176 171 172 176 179 185 209 218 234 219 267 268 271 290 290 270 290 298 294
209 196 193 191 186 180 174 166 166 169 172 174 176 177 179 181 179 181 189 187 189 196 192 193 197 191 190 190 211 212 215 235 249 226 263 280 284 276 283 275 286 294 296
208 192 183 183 181 178 173 171 172 172 175 178 181 185 186 187 181 197 202 198 203 208 213 214 217 221 231 229 223 234 247 248 261 252 261 274 288 275 281 284 284 293 299
203 195 191 189 177 179 173 170 172 172 175 184 188 187 187 190 196 212 214 210 216 219 222 227 229 234 239 236 237 242 254 257 251 260 267 269 277 280 280 285 283 292 301
194 193 198 186 176 177 174 173 175 179 183 190 195 196 201 205 213 221 226 223 224 226 231 234 235 236 233 226 232 237 243 250 246 254 266 264 266 270 273 277 283 287 295
195 195 196 190 181 177 174 176 181 184 188 197 200 209 211 214 220 227 232 234 234 232 231 232 236 241 238 229 227 235 233 233 243 248 253 260 268 274 274 271 274 275 290
192 192 190 178 175 175 179 183 184 184 193 204 211 218 217 220 224 230 234 238 241 240 242 242 247 248 242 234 231 227 240 239 250 246 244 248 254 260 268 277 276 280 285
181 180 179 179 181 179 183 188 192 196 205 209 216 218 221 227 232 233 235 239 241 244 244 246 246 247 242 243 237 240 238 245 227 237 233 239 251 253 255 263 268 273 279
183 178 181 182 184 188 191 190 201 207 212 217 221 226 230 232 234 236 238 240 244 247 251 251 249 246 244 244 246 246 243 241 246 233 234 229 251 258 249 253 263 266 272
192 191 190 192 194 196 199 205 211 214 220 223 223 226 230 234 235 237 242 245 249 253 256 258 254 249 248 255 257 256 251 241 241 246 249 256 257 265 282 265 257 259 264
Height
1499 1501 1505 1509 1497 1522 1519 1522 1522 1522 1524 1523 1525 1528 1527 1528 1530 1532 1535 1538 1540 1543 1545 1547 1549 1549 1550 1551 1552 1553 1555 1554 1556 1556 1556 1557 1556 1557 1557 1557 1557 1558 1557
1503 1503 1504 1506 1504 1515 1521 1524 1523 1522 1527 1525 1525 1525 1529 1531 1533 1534 1536 1540 1542 1544 1547 1548 1549 1550 1552 1553 1555 1555 1556 1557 1557 1557 1556 1557 1558 1558 1560 1559 1558 1560 1560
1505 1506 1507 1507 1503 1510 1523 1525 1522 1523 1525 1526 1525 1523 1528 1531 1534 1535 1538 1541 1543 1545 1547 1550 1551 1552 1553 1554 1556 1557 1558 1559 1559 1559 1558 1558 1558 1560 1560 1561 1561 1562 1563
1508 1508 1506 1508 1507 1503 1521 1531 1521 1523 1523 1524 1523 1523 1522 1527 1534 1535 1538 1544 1546 1547 1548 1550 1552 1553 1554 1555 1558 1558 1559 1561 1562 1561 1561 1561 1560 1562 1562 1563 1564 1564 1564
1504 1507 1510 1511 1511 1510 1513 1523 1518 1518 1520 1522 1523 1524 1524 1529 1531 1536 1539 1546 1548 1549 1551 1552 1554 1556 1556 1557 1560 1561 1562 1563 1565 1564 1563 1564 1563 1563 1564 1564 1565 1565 1566
1489 1503 1506 1512 1514 1517 1516 1517 1512 1514 1516 1520 1522 1524 1525 1530 1535 1539 1541 1546 1549 1550 1552 1554 1557 1558 1557 1559 1562 1564 1565 1565 1568 1566 1564 1565 1565 1566 1566 1566 1565 1565 1566
1487 1490 1500 1504 1505 1508 1514 1513 1507 1511 1513 1520 1521 1524 1529 1532 1537 1541 1545 1548 1550 1552 1553 1556 1559 1560 1560 1562 1564 1566 1568 1568 1569 1569 1568 1568 1567 1568 1569 1568 1567 1567 1567
1488 1488 1496 1498 1502 1498 1502 1498 1499 1509 1508 1520 1517 1524 1528 1535 1539 1542 1547 1550 1553 1554 1556 1559 1561 1562 1562 1564 1566 1567 1569 1571 1571 1571 1571 1571 1570 1571 1571 1570 1569 1570 1570
1489 1490 1493 1492 1494 1499 1499 1485 1493 1507 1510 1517 1521 1527 1532 1535 1539 1544 1548 1552 1555 1557 1559 1562 1564 1565 1564 1565 1567 1569 1571 1573 1573 1573 1573 1574 1573 1573 1573 1573 1572 1572 1572
1489 1492 1491 1490 1491 1496 1498 1493 1504 1509 1525 1523 1524 1530 1534 1538 1542 1546 1550 1554 1557 1559 1562 1564 1567 1567 1567 1567 1569 1571 1573 1574 1575 1575 1575 1576 1577 1576 1576 1576 1575 1576 1575
1490 1490 1492 1493 1492 1496 1500 1500 1503 1515 1523 1530 1528 1531 1536 1539 1543 1548 1551 1555 1560 1562 1564 1566 1568 1569 1569 1568 1571 1572 1575 1574 1576 1577 1578 1578 1579 1578 1577 1577 1577 1577 1577
1489 1490 1494 1495 1494 1496 1500 1498 1501 1513 1517 1528 1531 1535 1540 1541 1544 1550 1553 1556 1561 1564 1566 1568 1568 1571 1571 1570 1572 1574 1576 1577 1577 1577 1579 1580 1580 1579 1579 1578 1578 1579 1578
1491 1492 1492 1494 1494 1497 1501 1503 1506 1512 1519 1527 1536 1540 1541 1542 1546 1549 1553 1557 1561 1565 1567 1569 1570 1571 1572 1573 1573 1575 1576 1577 1578 1577 1578 1579 1580 1580 1580 1581 1580 1579 1578
1492 1491 1493 1494 1496 1500 1504 1507 1507 1511 1521 1528 1532 1537 1543 1544 1550 1550 1554 1557 1562 1564 1567 1569 1570 1571 1572 1573 1574 1576 1576 1577 1578 1578 1579 1579 1579 1580 1581 1582 1582 1580 1579
1492 1494 1494 1497 1499 1501 1504 1507 1512 1517 1523 1530 1536 1538 1544 1547 1549 1551 1554 1558 1561 1564 1568 1568 1570 1571 1573 1573 1574 1576 1577 1577 1578 1579 1579 1579 1580 1581 1581 1581 1580 1579 1579
1491 1493 1493 1497 1500 1502 1505 1509 1513 1518 1524 1530 1535 1540 1545 1548 1550 1551 1554 1557 1560 1563 1567 1569 1570 1571 1573 1574 1576 1576 1577 1578 1579 1580 1580 1581 1581 1581 1580 1580 1579 1580 1580
1488 1491 1495 1496 1498 1502 1505 1509 1513 1519 1523 1529 1535 1541 1545 1548 1550 1550 1555 1557 1559 1562 1565 1567 1568 1570 1571 1573 1574 1576 1576 1577 1578 1579 1579 1580 1580 1580 1580 1579 1580 1580 1580
1487 1490 1493 1495 1497 1501 1505 1509 1514 1518 1524 1529 1535 1539 1543 1546 1549 1552 1553 1555 1558 1561 1563 1565 1567 1568 1570 1571 1573 1573 1575 1576 1577 1578 1579 1580 1579 1579 1577 1579 1579 1579 1579
1486 1489 1493 1495 1498 1501 1506 1510 1516 1520 1524 1529 1534 1538 1542 1546 1547 1552 1553 1554 1557 1559 1562 1563 1564 1566 1568 1569 1571 1572 1573 1575 1576 1576 1575 1577 1578 1578 1577 1579 1577 1576 1577
1486 1491 1493 1496 1498 1502 1506 1512 1517 1519 1524 1529 1532 1536 1542 1545 1547 1551 1551 1551 1555 1558 1560 1560 1561 1564 1565 1567 1568 1569 1569 1571 1571 1573 1573 1573 1575 1577 1577 1575 1575 1574 1574
1486 1490 1492 1495 1499 1501 1506 1511 1516 1519 1523 1529 1533 1537 1541 1543 1545 1546 1547 1550 1554 1555 1555 1555 1558 1560 1562 1565 1566 1567 1568 1568 1567 1570 1569 1571 1572 1572 1573 1573 1573 1572 1572
1484 1488 1491 1494 1497 1500 1505 1509 1514 1518 1522 1528 1531 1535 1538 1539 1541 1543 1545 1548 1549 1551 1551 1552 1554 1558 1560 1562 1562 1564 1565 1565 1564 1565 1564 1565 1567 1568 1567 1566 1567 1568 1566
1482 1484 1487 1491 1496 1500 1504 1508 1514 1519 1523 1524 1525 1530 1533 1537 1538 1539 1541 1544 1545 1547 1548 1551 1554 1555 1557 1559 1559 1561 1563 1561 1561 1559 1562 1563 1565 1564 1563 1563 1562 1562 1562
1480 1483 1487 1489 1493 1498 1503 1507 1510 1514 1515 1518 1522 1526 1531 1534 1535 1536 1538 1540 1542 1543 1544 1547 1550 1550 1552 1555 1554 1554 1555 1557 1557 1558 1557 1558 1560 1560 1560 1560 1559 1558 1558
1477 1478 1483 1488 1492 1498 1502 1505 1509 1511 1513 1517 1521 1525 1528 1529 1531 1532 1533 1535 1537 1539 1540 1542 1545 1544 1546 1547 1547 1547 1549 1550 1552 1553 1552 1554 1555 1555 1555 1554 1554 1554 1553
1475 1478 1483 1487 1491 1495 1498 1501 1502 1506 1510 1515 1516 1519 1522 1521 1524 1526 1527 1530 1532 1534 1536 1537 1539 1539 1541 1541 1542 1542 1541 1542 1543 1545 1546 1547 1548 1550 1549 1549 1549 1549 1548